Change the Weather History Date:

Sunday, August 18, 2013

  Actual Average Record
Temperature  
Mean Temperature 63 °F 67 °F  
Max Temperature 69 °F 77 °F 86 °F (2002)
Min Temperature 56 °F 57 °F 35 °F (1941)
Degree Days  
Heating Degree Days 2 1  
Month to date heating degree days 46 18  
Since 1 June heating degree days 133 140  
Since 1 July heating degree days 57 40  
Cooling Degree Days 0 3  
Month to date cooling degree days 20 68  
Year to date cooling degree days 359 270  
Since 1 June cooling degree days 327 251  
Growing Degree Days 12 (Base 50)    
Moisture  
Dew Point 56 °F    
Average Humidity 78    
Maximum Humidity 93    
Minimum Humidity 63    
Precipitation  
Precipitation T in 0.16 in 1.50 in (1932)
Month to date precipitation 4.00 2.77  
Year to date precipitation 34.01 29.29  
Sea Level Pressure  
Sea Level Pressure 30.25 in    
Wind  
Wind Speed 1 mph (ESE)    
Max Wind Speed 7 mph    
Max Gust Speed 20 mph    
Visibility 10 miles    
Events Rain    
T = Trace of Precipitation, MM = Missing Value Source: NWS Daily Summary

Daily Weather History Graph

Daily Weather History Graph

Search for Another Location

Airport or City:

Trip Planner

Search our weather history database for the weather conditions in past years. The results will help you decide how hot, cold, wet, or windy it might be!

Date:

Astronomy

Aug. 18, 2013 Rise Set
Actual Time 6:14 AM EDT 7:55 PM EDT
Civil Twilight 5:44 AM EDT 8:24 PM EDT
Nautical Twilight 5:09 AM EDT 9:00 PM EDT
Astronomical Twilight 4:31 AM EDT 9:38 PM EDT
Moon 6:00 PM EDT (8/18) 3:20 AM EDT (8/18)
Length of Visible Light 14h 39m
Length of Day
13h 41m
Waxing Gibbous, 92% of the Moon is Illuminated
Aug 18
Waxing Gibbous
Aug 20
Full
Aug 28
Last Quarter
Sep 5
New
Sep 12
First Quarter

Hourly Weather History & Observations

Time (EDT) Temp. Dew Point Humidity Pressure Visibility Wind Dir Wind Speed Gust Speed Precip Events Conditions
12:53 AM 57.0 °F 54.0 °F 89% 30.30 in 10.0 mi Calm Calm - N/A   Clear
1:53 AM 55.9 °F 53.1 °F 90% 30.29 in 9.0 mi Calm Calm - N/A   Clear
2:53 AM 55.9 °F 53.1 °F 90% 30.28 in 9.0 mi Calm Calm - N/A   Clear
3:53 AM 55.9 °F 54.0 °F 93% 30.27 in 9.0 mi Calm Calm - N/A   Clear
4:53 AM 57.0 °F 54.0 °F 89% 30.27 in 9.0 mi Calm Calm - N/A   Clear
5:53 AM 57.9 °F 55.0 °F 90% 30.28 in 10.0 mi Calm Calm - N/A   Clear
6:53 AM 57.9 °F 55.0 °F 90% 30.28 in 9.0 mi Calm Calm - N/A   Clear
7:53 AM 60.1 °F 55.9 °F 86% 30.29 in 9.0 mi Calm Calm - N/A   Clear
8:53 AM 63.0 °F 57.0 °F 81% 30.29 in 10.0 mi Calm Calm - N/A   Partly Cloudy
9:53 AM 64.9 °F 59.0 °F 81% 30.30 in 10.0 mi Calm Calm - 0.00 in   Overcast
10:53 AM 66.9 °F 55.9 °F 68% 30.30 in 10.0 mi East 4.6 mph - 0.00 in Rain Light Rain
11:53 AM 68.0 °F 54.0 °F 61% 30.30 in 10.0 mi Calm Calm - 0.00 in   Overcast
12:53 PM 66.9 °F 54.0 °F 63% 30.28 in 10.0 mi SE 3.5 mph - N/A   Mostly Cloudy
1:53 PM 66.0 °F 57.9 °F 75% 30.27 in 10.0 mi SE 4.6 mph - 0.00 in Rain Light Rain
2:53 PM 66.9 °F 55.0 °F 66% 30.24 in 10.0 mi Calm Calm - 0.00 in   Overcast
3:53 PM 68.0 °F 57.0 °F 68% 30.21 in 10.0 mi East 4.6 mph - N/A   Clear
4:53 PM 68.0 °F 55.9 °F 65% 30.22 in 10.0 mi Calm Calm - N/A   Overcast
5:53 PM 66.9 °F 55.9 °F 68% 30.20 in 10.0 mi SE 3.5 mph - N/A   Overcast
6:53 PM 66.0 °F 55.9 °F 70% 30.19 in 10.0 mi Calm Calm - N/A   Scattered Clouds
7:53 PM 64.0 °F 59.0 °F 84% 30.19 in 10.0 mi Calm Calm - N/A   Clear
8:53 PM 62.1 °F 57.9 °F 86% 30.19 in 10.0 mi Calm Calm - N/A   Scattered Clouds
9:40 PM 60.8 °F 57.2 °F 88% 30.21 in 10.0 mi Calm Calm - N/A   Mostly Cloudy
9:53 PM 60.1 °F 57.0 °F 90% 30.19 in 10.0 mi Calm Calm - N/A   Mostly Cloudy
10:11 PM 59.0 °F 57.2 °F 94% 30.21 in 9.0 mi Calm Calm - N/A   Scattered Clouds
10:53 PM 57.9 °F 55.9 °F 93% 30.19 in 7.0 mi NW 3.5 mph - N/A   Clear
11:53 PM 57.9 °F 55.0 °F 90% 30.18 in 6.0 mi Calm Calm - N/A   Clear